カタログに戻る

STARLINK-35946

運用中通信VLEO
NORAD 66522·PAYLOAD·🇺🇸 United States

打ち上げ Nov 19, 2025 から Cape Canaveral Space Force Station

Loading…

次のパス (今後24時間)

TLE

最新Source: CelesTrak SupGP

元期: Sep 15, 2026, 02:46 UTC

1 66522C 25265G   26258.11576389  .00012057  00000+0  43659-3 0  2586
2 66522  43.0022 288.4222 0001206 267.6396 344.3316 15.27580506    14

AllMySatでSTARLINK-35946をリアルタイム追跡

Download on the App Store